FW2581 Weather Reports


time (UTC)temp
C
wind
direction
speed
KPH
gust
KPH
rain 1hr
cm
rain 24hr
cm
rain mn
cm
humidity
%
barometer
mb
20260507223029 23 27 8.0 17.7 0.00 0.00 0.00 31 1015.9
20260507221536 23 54 9.7 19.3 0.00 0.00 0.00 32 1016.1
20260507220037 23 53 11.3 25.7 0.00 0.00 0.00 33 1016.2
20260507214535 23 49 11.3 22.5 0.00 0.00 0.00 32 1016.3
20260507213036 23 27 8.0 16.1 0.00 0.00 0.00 32 1016.6
20260507210035 23 5 6.4 17.7 0.00 0.00 0.00 33 1016.8
20260507204529 23 47 6.4 17.7 0.00 0.00 0.00 35 1017.1
20260507203032 22 71 8.0 16.1 0.00 0.00 0.00 36 1017.3
20260507200032 22 69 8.0 20.9 0.00 0.00 0.00 39 1017.5
20260507194531 22 63 6.4 16.1 0.00 0.00 0.00 39 1017.6
20260507193032 21 47 8.0 17.7 0.00 0.00 0.00 41 1017.6
20260507191605 21 70 6.4 14.5 0.00 0.00 0.00 43 1017.8
20260507190033 20 44 8.0 16.1 0.00 0.00 0.00 45 1018.0
20260507184533 20 62 6.4 17.7 0.00 0.00 0.00 49 1018.2
20260507181533 19 50 8.0 19.3 0.00 0.00 0.00 51 1018.3
20260507180031 18 63 11.3 20.9 0.00 0.00 0.00 53 1018.4
20260507174642 18 69 9.7 19.3 0.00 0.00 0.00 54 1018.4
20260507173034 18 74 11.3 27.4 0.00 0.00 0.00 51 1018.4
20260507170031 17 291 4.8 11.3 0.00 0.00 0.00 55 1018.5
20260507164534 16 276 6.4 11.3 0.00 0.00 0.00 63 1018.5
20260507163037 16 267 8.0 16.1 0.00 0.00 0.00 66 1018.6
20260507160141 13 264 6.4 11.3 0.00 0.00 0.00 83 1019.1
20260507154536 11 290 0.0 8.0 0.00 0.00 0.00 91 1019.5
20260507151531 9 225 0.0 3.2 0.00 0.00 0.00 94 1019.6
20260507150047 8 225 0.0 1.6 0.00 0.00 0.00 95 1019.6
20260507144607 8 246 0.0 1.6 0.00 0.00 0.00 95 1019.6
20260507141535 6 202 0.0 1.6 0.00 0.00 0.00 94 1019.5
20260507140033 5 203 3.2 6.4 0.00 0.00 0.00 93 1019.1
20260507133029 5 247 0.0 4.8 0.00 0.00 0.00 93 1019.1
20260507131531 4 247 0.0 3.2 0.00 0.00 0.00 92 1019.0
20260507124532 5 247 0.0 3.2 0.00 0.00 0.00 92 1018.9
20260507123029 5 218 1.6 3.2 0.00 0.00 0.00 91 1018.7
20260507121530 5 269 0.0 4.8 0.00 0.00 0.00 91 1018.7
20260507120106 5 337 0.0 0.0 0.00 0.00 0.00 90 1018.6
20260507114535 5 337 0.0 0.0 0.00 0.00 0.00 90 1018.5
20260507113032 6 337 0.0 4.8 0.00 0.00 0.00 89 1018.4
20260507110052 6 319 0.0 6.4 0.00 0.00 0.00 87 1018.3
20260507104642 7 154 1.6 4.8 0.00 0.00 0.00 85 1018.2
20260507103107 7 178 0.0 4.8 0.00 0.00 0.00 84 1018.2
20260507100037 8 135 0.0 6.4 0.00 0.00 0.00 81 1018.1
20260507091529 9 206 3.2 6.4 0.00 0.00 0.00 76 1018.2
20260507090108 10 208 4.8 9.7 0.00 0.00 0.00 76 1018.3
20260507084530 9 189 4.8 9.7 0.00 0.00 0.00 77 1018.3
20260507083038 9 171 3.2 8.0 0.00 0.00 0.00 74 1018.4
20260507081537 10 30 1.6 6.4 0.00 0.00 0.00 72 1018.3
20260507080030 10 205 3.2 4.8 0.00 0.00 0.00 69 1018.3
20260507074536 11 172 4.8 8.0 0.00 0.00 0.00 66 1018.2
20260507073037 12 174 1.6 9.7 0.00 0.00 0.00 63 1018.1
20260507070033 13 70 4.8 8.0 0.00 0.00 0.00 59 1018.1
20260507064531 14 79 6.4 11.3 0.00 0.00 0.00 57 1018.3
20260507063035 15 135 4.8 11.3 0.00 0.00 0.00 54 1018.3
20260507061535 16 304 6.4 19.3 0.00 0.00 0.00 53 1018.2
20260507060031 16 339 12.9 22.5 0.00 0.00 0.00 53 1018.1
20260507054531 16 339 14.5 29.0 0.00 0.00 0.00 52 1018.3
20260507053034 16 338 12.9 24.1 0.00 0.00 0.00 52 1018.5
20260507051530 15 335 11.3 22.5 0.00 0.00 0.00 51 1018.7
20260507050037 16 320 8.0 16.1 0.00 0.00 0.00 50 1018.8
20260507044528 16 301 9.7 17.7 0.00 0.00 0.00 50 1018.9
20260507043030 16 298 9.7 22.5 0.00 0.00 0.00 50 1018.8
20260507040043 16 295 8.0 20.9 0.00 0.00 0.00 51 1018.6
20260507034532 17 287 9.7 22.5 0.00 0.00 0.00 50 1018.5
20260507033030 17 291 9.7 22.5 0.00 0.00 0.00 48 1018.4
20260507030031 18 302 16.1 33.8 0.00 0.00 0.00 46 1017.9
20260507024610 18 314 14.5 30.6 0.00 0.00 0.00 46 1017.7
20260507023031 18 318 12.9 37.0 0.00 0.00 0.00 45 1017.6
20260507021535 19 317 9.7 29.0 0.00 0.00 0.00 44 1017.7
20260507014642 20 302 11.3 27.4 0.00 0.00 0.00 40 1017.6
20260507013031 20 303 14.5 33.8 0.00 0.00 0.00 40 1017.5
20260507011607 21 302 14.5 33.8 0.00 0.00 0.00 39 1017.2
20260507004607 21 298 14.5 29.0 0.00 0.00 0.00 39 1017.1
20260507003150 21 296 16.1 32.2 0.00 0.00 0.00 38 1017.1
20260507001533 22 294 16.1 35.4 0.00 0.00 0.00 37 1017.0
20260506233031 24 299 16.1 35.4 0.00 0.00 0.00 33 1016.8
20260506231530 25 306 17.7 33.8 0.00 0.00 0.00 33 1016.8
20260506230030 25 296 14.5 30.6 0.00 0.00 0.00 35 1016.9
20260506224616 25 295 16.1 32.2 0.00 0.00 0.00 36 1017.0
20260506224607 25 289 16.1 33.8 0.00 0.00 0.00 36 1017.3